Location: Sevilla
(37.3933°N, 5.9839°W)
Time: 05:50:54
(UTC+02:00)

Vanguard 3 - Pass Details

Date: 03 July 2024
Orbit: 508 x 3231 km, 33.4° (Epoch: 15 July)

Event Time Altitude Azimuth Distance (km) Brightness Sun altitude
Rises 03:38:59 0° 183° (S) 6,838 - -27.4°
Reaches altitude 10° 03:46:50 10° 164° (SSE) 6,086 - -26.9°
Exits shadow 03:49:12 12° 157° (SSE) 5,925 11.1 -26.7°
Maximum altitude 03:56:00 15° 135° (SE) 5,682 11.2 -26.2°
Drops below altitude 10° 04:04:50 10° 107° (ESE) 5,924 11.6 -25.5°
Sets 04:12:02 0° 88° (E) 6,575 12.2 -24.9°
